Regional Weather Roundup
Issued by NWS Goodland, KS

Home | Current Version | Previous Version | Graphics & Text | Print | Product List | Glossary On
Versions: 1 2 3 4 5 6 7 8 9 10 11 12 13 14 15 16 17 18 19 20 21 22 23 24 25 26 27 28 29 30 31 32 33 34 35 36 37 38 39 40 41 42 43 44 45 46 47 48 49 50
000
ASUS43 KGLD 251259
RWRGLD

GOODLAND FORECAST AREA HOURLY WEATHER ROUNDUP
NATIONAL WEATHER SERVICE GOODLAND KS
700 AM MDT SAT MAR 25 2017

...OFFICIAL OBSERVATIONS...

CITY           SKY/WX    TMP DP  RH WIND       PRES   REMARKS
GOODLAND KS    CLEAR     32  29  88 NW10      30.05R
HILL CITY KS   CLOUDY    39  36  89 N12       30.03R
IMPERIAL NEB   CLOUDY    32  27  81 NW8       30.06R
MCCOOK NEB     CLEAR     32  30  92 W3        30.04R
AKRON CO       CLOUDY    31  26  82 SW8       30.06R
BURLINGTON CO  CLEAR     32  28  85 NW10      30.06S
LIMON CO       CLOUDY    23  22  96 NW3       30.09R
$$

...UNOFFICIAL OBSERVATIONS...

CITY           SKY/WX    TMP DP  RH WIND       PRES   REMARKS
LENORA KS        N/A     35  32  89 CALM        N/A
NORTON KS      CLOUDY    36  30  80 N14       30.01S
SHARON SPRINGS   N/A     32  29  90 NW9         N/A
TRENTON NEB      N/A     32  32 100 NW8         N/A
YUMA CO        FAIR      28  27  93 W6        30.06S
$$




USA.gov is the U.S. government's official web portal to all federal, state and local government web resources and services.